15-03-2023, 00:00:00,    254,    0.0,    0.0,   0.00,   0.00, 1010.9,    0.0, -999.0
15-03-2023, 00:00:10,    255,    0.0,    0.1,   0.00,   0.00, 1010.9,    0.0, -999.0
15-03-2023, 00:00:20,    255,    0.0,    0.1,   0.00,   0.00, 1010.9,    0.1, -999.0
15-03-2023, 00:00:30,    255,    0.0,    0.1,   0.00,   0.00, 1010.9,    0.1, -999.0
15-03-2023, 00:00:40,    255,    0.0,    0.1,   0.00,   0.00, 1010.9,    0.0, -999.0
15-03-2023, 00:00:50,    255,    0.0,    0.2,   0.00,   0.00, 1010.9,    0.1, -999.0
15-03-2023, 00:01:00,    255,    0.0,    0.0,   0.00,   0.00, 1010.9,    0.0, -999.0
15-03-2023, 00:01:10,    255,    0.0,    0.2,   0.00,   0.00, 1010.9,    0.2, -999.0
15-03-2023, 00:01:20,    255,    0.0,    0.2,   0.00,   0.01, 1010.9,    0.1, -999.0
15-03-2023, 00:01:30,    255,    0.0,    0.2,   0.00,   0.00, 1010.9,    0.0, -999.0
15-03-2023, 00:01:40,    255,    0.0,    0.1,   0.00,   0.00, 1010.9,    0.0, -999.0
15-03-2023, 00:01:50,    255,    0.0,    0.1,   0.00,   0.00, 1010.9,    0.0, -999.0
15-03-2023, 00:02:00,    258,    0.0,    0.1,   0.00,   0.00, 1010.9,    0.0, -999.0
15-03-2023, 00:02:10,    255,    0.0,    0.1,   0.00,   0.00, 1011.0,    0.0, -999.0
15-03-2023, 00:02:20,    255,    0.0,    0.1,   0.00,   0.00, 1010.9,    0.1, -999.0
15-03-2023, 00:02:30,    255,    0.0,    0.2,   0.00,   0.00, 1010.9,    0.1, -999.0
15-03-2023, 00:02:40,    255,    0.0,    0.3,   0.00,   0.00, 1010.9,    0.0, -999.0
15-03-2023, 00:02:50,    255,    0.0,    0.2,   0.00,   0.00, 1010.9,    0.1, -999.0
15-03-2023, 00:03:00,    255,    0.0,    0.1,   0.00,   0.00, 1011.0,    0.1, -999.0
15-03-2023, 00:03:10,    255,    0.0,    0.2,   0.00,   0.00, 1011.0,    0.0, -999.0
15-03-2023, 00:03:20,    255,    0.0,    0.2,   0.00,   0.00, 1011.0,    0.3, -999.0
15-03-2023, 00:03:30,    255,    0.0,    0.2,   0.00,   0.00, 1011.0,    0.1, -999.0
15-03-2023, 00:03:39,    255,    0.0,    0.1,   0.00,   0.00, 1011.0,    0.0, -999.0
15-03-2023, 00:03:50,    255,    0.0,    0.2,   0.00,   0.00, 1011.0,    0.0, -999.0
15-03-2023, 00:04:00,    255,    0.0,    0.1,   0.00,   0.00, 1011.0,    0.1, -999.0
15-03-2023, 00:04:10,    255,    0.0,    0.2,   0.00,   0.00, 1011.0,    0.0, -999.0
15-03-2023, 00:04:19,    255,    0.0,    0.1,   0.00,   0.00, 1011.0,    0.1, -999.0
15-03-2023, 00:04:30,    255,    0.0,    0.2,   0.00,   0.00, 1011.0,    0.0, -999.0
15-03-2023, 00:04:40,    255,    0.0,    0.1,   0.00,   0.00, 1011.0,    0.1, -999.0
15-03-2023, 00:04:49,    256,    0.0,    0.1,   0.00,   0.00, 1011.0,    0.1, -999.0
15-03-2023, 00:04:59,    255,    0.0,    0.1,   0.00,   0.00, 1011.0,    0.1, -999.0
15-03-2023, 00:05:10,    254,    0.0,    0.2,   0.00,   0.00, 1011.0,    0.0, -999.0
15-03-2023, 00:05:20,    255,    0.0,    0.2,   0.00,   0.00, 1011.0,    0.0, -999.0
15-03-2023, 00:05:29,    255,    0.0,    0.2,   0.00,   0.00, 1011.0,    0.0, -999.0
15-03-2023, 00:05:39,    255,    0.0,    0.2,   0.00,   0.00, 1011.0,    0.1, -999.0
15-03-2023, 00:05:50,    255,    0.0,    0.1,   0.00,   0.00, 1011.0,    0.0, -999.0
15-03-2023, 00:05:59,    255,    0.0,    0.1,   0.00,   0.00, 1011.0,    0.0, -999.0
15-03-2023, 00:06:09,    255,    0.0,    0.1,   0.00,   0.00, 1011.0,    0.0, -999.0
15-03-2023, 00:06:19,    254,    0.0,    0.1,   0.00,   0.00, 1011.0,    0.1, -999.0
15-03-2023, 00:06:30,    255,    0.0,    0.1,   0.00,   0.00, 1011.0,    0.0, -999.0
15-03-2023, 00:06:39,    255,    0.0,    0.1,   0.00,   0.00, 1011.0,    0.0, -999.0
15-03-2023, 00:06:49,    255,    0.0,    0.1,   0.00,   0.00, 1011.0,    0.0, -999.0
15-03-2023, 00:06:59,    255,    0.0,    0.1,   0.00,   0.00, 1011.0,    0.2, -999.0
15-03-2023, 00:07:09,    255,    0.0,    0.1,   0.00,   0.00, 1011.0,    0.1, -999.0
15-03-2023, 00:07:19,    255,    0.0,    0.1,   0.00,   0.00, 1011.0,    0.0, -999.0
15-03-2023, 00:07:29,    255,    0.0,    0.1,   0.00,   0.00, 1011.0,    0.1, -999.0
15-03-2023, 00:07:40,    254,    0.0,    0.0,   0.00,   0.00, 1011.0,    0.0, -999.0
15-03-2023, 00:07:49,    255,    0.0,    0.0,   0.00,   0.00, 1011.0,    0.1, -999.0
15-03-2023, 00:07:59,    255,    0.0,    0.1,   0.00,   0.00, 1011.0,    0.0, -999.0
15-03-2023, 00:08:09,    255,    0.0,    0.0,   0.00,   0.00, 1011.0,    0.1, -999.0
15-03-2023, 00:08:19,    255,    0.0,    0.0,   0.00,   0.00, 1011.0,    0.1, -999.0
15-03-2023, 00:08:29,    255,    0.0,    0.0,   0.00,   0.00, 1011.0,    0.1, -999.0
15-03-2023, 00:08:39,    255,    0.0,    0.0,   0.00,   0.00, 1011.0,    0.1, -999.0
15-03-2023, 00:08:49,    255,    0.0,    0.2,   0.00,   0.00, 1011.0,    0.1, -999.0
15-03-2023, 00:08:59,    255,    0.0,    0.0,   0.00,   0.00, 1011.0,    0.1, -999.0
15-03-2023, 00:09:09,    255,    0.0,    0.0,   0.00,   0.00, 1011.0,    0.0, -999.0
15-03-2023, 00:09:19,    255,    0.0,    0.0,   0.00,   0.00, 1011.0,    0.1, -999.0
15-03-2023, 00:09:29,    255,    0.0,    0.0,   0.00,   0.00, 1011.0,    0.1, -999.0
15-03-2023, 00:09:39,    255,    0.0,    0.0,   0.00,   0.00, 1011.0,    0.2, -999.0
15-03-2023, 00:09:49,    255,    0.0,    0.0,   0.00,   0.00, 1011.1,    0.0, -999.0
15-03-2023, 00:09:59,    255,    0.0,    0.1,   0.00,   0.00, 1011.1,    0.1, -999.0
15-03-2023, 00:10:09,    254,    0.0,    0.0,   0.00,   0.00, 1011.1,    0.1, -999.0
15-03-2023, 00:10:19,    255,    0.0,    0.0,   0.00,   0.00, 1011.0,    0.1, -999.0
15-03-2023, 00:10:29,    255,    0.0,   -0.1,   0.00,   0.00, 1011.1,    0.0, -999.0
15-03-2023, 00:10:39,    255,    0.0,    0.0,   0.00,   0.00, 1011.1,    0.1, -999.0
15-03-2023, 00:10:49,    255,    0.0,    0.1,   0.00,   0.00, 1011.0,    0.1, -999.0
15-03-2023, 00:10:59,    255,    0.0,    0.1,   0.00,   0.00, 1011.1,    0.0, -999.0
15-03-2023, 00:11:09,    255,    0.0,    0.1,   0.00,   0.00, 1011.1,    0.0, -999.0
15-03-2023, 00:11:19,    255,    0.0,    0.1,   0.00,   0.00, 1011.1,    0.2, -999.0
15-03-2023, 00:11:29,    255,    0.0,    0.1,   0.00,   0.00, 1011.1,    0.0, -999.0
15-03-2023, 00:11:39,    255,    0.0,    0.1,   0.00,   0.00, 1011.1,    0.1, -999.0
15-03-2023, 00:11:49,    255,    0.0,    0.1,   0.00,   0.00, 1011.1,    0.1, -999.0
15-03-2023, 00:11:59,    255,    0.0,    0.0,   0.00,   0.00, 1011.0,    0.1, -999.0
15-03-2023, 00:12:09,    255,    0.0,    0.1,   0.00,   0.00, 1011.0,    0.1, -999.0
15-03-2023, 00:12:19,    256,    0.0,    0.1,   0.00,   0.00, 1011.0,    0.0, -999.0
15-03-2023, 00:12:29,    255,    0.0,    0.1,   0.00,   0.00, 1011.1,    0.0, -999.0
15-03-2023, 00:12:39,    255,    0.0,    0.0,   0.00,   0.00, 1011.0,    0.0, -999.0
15-03-2023, 00:12:49,    255,    0.0,    0.0,   0.00,   0.00, 1011.1,    0.2, -999.0
15-03-2023, 00:12:59,    255,    0.0,    0.0,   0.00,   0.00, 1011.1,    0.1, -999.0
15-03-2023, 00:13:09,    255,    0.0,    0.1,   0.00,   0.00, 1011.1,    0.0, -999.0
15-03-2023, 00:13:19,    252,    0.0,    0.2,   0.00,   0.00, 1011.1,    0.0, -999.0
15-03-2023, 00:13:29,    252,    0.0,    0.1,   0.00,   0.00, 1011.1,    0.2, -999.0
15-03-2023, 00:13:39,    252,    0.0,    0.1,   0.00,   0.00, 1011.1,    0.0, -999.0
15-03-2023, 00:13:49,    252,    0.0,    0.1,   0.00,   0.00, 1011.1,    0.0, -999.0
15-03-2023, 00:13:59,    252,    0.0,    0.1,   0.00,   0.00, 1011.2,    0.0, -999.0
15-03-2023, 00:14:09,    252,    0.0,    0.1,   0.00,   0.00, 1011.1,    0.1, -999.0
15-03-2023, 00:14:19,    252,    0.0,    0.1,   0.00,   0.00, 1011.2,    0.0, -999.0
15-03-2023, 00:14:29,    252,    0.0,    0.0,   0.00,   0.00, 1011.1,    0.0, -999.0
15-03-2023, 00:14:39,    252,    0.0,    0.0,   0.00,   0.00, 1011.2,    0.1, -999.0
15-03-2023, 00:14:49,    252,    0.0,    0.1,   0.00,   0.00, 1011.1,    0.0, -999.0
15-03-2023, 00:14:59,    252,    0.0,    0.0,   0.00,   0.00, 1011.1,    0.1, -999.0
15-03-2023, 00:15:08,    252,    0.0,    0.0,   0.00,   0.00, 1011.1,    0.1, -999.0
15-03-2023, 00:15:19,    253,    0.0,    0.0,   0.00,   0.00, 1011.2,    0.2, -999.0
15-03-2023, 00:15:29,    252,    0.0,    0.0,   0.00,   0.00, 1011.2,    0.0, -999.0
15-03-2023, 00:15:39,    252,    0.0,    0.0,   0.00,   0.00, 1011.1,    0.1, -999.0
15-03-2023, 00:15:48,    252,    0.0,    0.0,   0.00,   0.00, 1011.1,    0.0, -999.0
15-03-2023, 00:15:59,    252,    0.0,    0.0,   0.00,   0.00, 1011.1,    0.0, -999.0
15-03-2023, 00:16:09,    252,    0.0,    0.0,   0.00,   0.00, 1011.1,    0.1, -999.0
15-03-2023, 00:16:18,    252,    0.0,   -0.1,   0.00,   0.00, 1011.1,    0.0, -999.0
15-03-2023, 00:16:28,    252,    0.0,   -0.2,   0.00,   0.00, 1011.1,    0.1, -999.0
15-03-2023, 00:16:39,    252,    0.0,   -0.1,   0.00,   0.00, 1011.2,    0.0, -999.0
15-03-2023, 00:16:48,    252,    0.0,    0.0,   0.00,   0.00, 1011.1,    0.1, -999.0
15-03-2023, 00:16:58,    252,    0.0,    0.0,   0.00,   0.00, 1011.2,    0.1, -999.0
15-03-2023, 00:17:08,    252,    0.0,    0.0,   0.00,   0.00, 1011.1,    0.1, -999.0
15-03-2023, 00:17:19,    252,    0.0,    0.0,   0.00,   0.00, 1011.2,    0.1, -999.0
15-03-2023, 00:17:28,    253,    0.0,   -0.1,   0.00,   0.00, 1011.2,    0.0, -999.0
15-03-2023, 00:17:38,    252,    0.0,    0.0,   0.00,   0.00, 1011.2,    0.0, -999.0
15-03-2023, 00:17:49,    252,    0.0,    0.1,   0.00,   0.00, 1011.2,    0.0, -999.0
15-03-2023, 00:17:58,    252,    0.0,    0.1,   0.00,   0.00, 1011.2,    0.1, -999.0
15-03-2023, 00:18:08,    252,    0.0,    0.0,   0.00,   0.00, 1011.1,    0.0, -999.0
15-03-2023, 00:18:18,    252,    0.0,    0.0,   0.00,   0.00, 1011.1,    0.0, -999.0
15-03-2023, 00:18:28,    252,    0.0,    0.0,   0.00,   0.00, 1011.2,    0.0, -999.0
15-03-2023, 00:18:38,    253,    0.0,    0.0,   0.00,   0.00, 1011.2,    0.1, -999.0
15-03-2023, 00:18:48,    252,    0.0,    0.0,   0.00,   0.00, 1011.2,    0.0, -999.0
15-03-2023, 00:18:58,    252,    0.0,    0.0,   0.00,   0.00, 1011.2,    0.1, -999.0
15-03-2023, 00:19:08,    252,    0.0,    0.1,   0.00,   0.00, 1011.2,    0.1, -999.0
15-03-2023, 00:19:18,    253,    0.0,    0.1,   0.00,   0.00, 1011.2,    0.1, -999.0
15-03-2023, 00:19:28,    253,    0.0,    0.0,   0.00,   0.00, 1011.2,    0.0, -999.0
15-03-2023, 00:19:38,    252,    0.0,    0.1,   0.00,   0.00, 1011.2,    0.1, -999.0
15-03-2023, 00:19:48,    252,    0.0,    0.0,   0.00,   0.00, 1011.2,    0.1, -999.0
15-03-2023, 00:19:58,    249,    0.0,    0.0,   0.00,   0.00, 1011.2,    0.0, -999.0
15-03-2023, 00:20:08,    252,    0.0,    0.1,   0.00,   0.00, 1011.2,    0.1, -999.0
15-03-2023, 00:20:18,    252,    0.0,    0.1,   0.00,   0.00, 1011.2,    0.1, -999.0
15-03-2023, 00:20:28,    253,    0.0,    0.0,   0.00,   0.00, 1011.2,    0.1, -999.0
15-03-2023, 00:20:38,    252,    0.0,    0.0,   0.00,   0.00, 1011.2,    0.0, -999.0
15-03-2023, 00:20:48,    253,    0.0,    0.0,   0.00,   0.00, 1011.2,    0.1, -999.0
15-03-2023, 00:20:58,    253,    0.0,    0.0,   0.00,   0.00, 1011.2,    0.0, -999.0
15-03-2023, 00:21:08,    252,    0.0,   -0.2,   0.00,   0.00, 1011.2,    0.0, -999.0
15-03-2023, 00:21:18,    252,    0.0,    0.0,   0.00,   0.00, 1011.2,    0.1, -999.0
15-03-2023, 00:21:28,    252,    0.0,    0.1,   0.00,   0.00, 1011.2,    0.2, -999.0
15-03-2023, 00:21:38,    253,    0.0,    0.0,   0.00,   0.00, 1011.2,    0.0, -999.0
15-03-2023, 00:21:48,    252,    0.0,    0.0,   0.00,   0.00, 1011.2,    0.0, -999.0
15-03-2023, 00:21:58,    253,    0.0,    0.0,   0.00,   0.00, 1011.2,    0.0, -999.0
15-03-2023, 00:22:08,    253,    0.0,    0.0,   0.00,   0.00, 1011.2,    0.1, -999.0
15-03-2023, 00:22:18,    253,    0.0,    0.0,   0.00,   0.00, 1011.2,    0.1, -999.0
15-03-2023, 00:22:28,    253,    0.0,   -0.1,   0.00,   0.00, 1011.2,    0.2, -999.0
15-03-2023, 00:22:38,    253,    0.0,    0.1,   0.00,   0.00, 1011.2,    0.0, -999.0
15-03-2023, 00:22:48,    253,    0.0,    0.1,   0.00,   0.00, 1011.2,    0.1, -999.0
15-03-2023, 00:22:58,    253,    0.0,    0.0,   0.00,   0.00, 1011.2,    0.1, -999.0
15-03-2023, 00:23:08,    253,    0.0,    0.0,   0.00,   0.00, 1011.2,    0.0, -999.0
15-03-2023, 00:23:18,    253,    0.0,    0.0,   0.00,   0.00, 1011.2,    0.0, -999.0
15-03-2023, 00:23:28,    253,    0.0,    0.0,   0.00,   0.00, 1011.2,    0.2, -999.0
15-03-2023, 00:23:38,    253,    0.0,   -0.1,   0.00,   0.00, 1011.2,    0.1, -999.0
15-03-2023, 00:23:48,    253,    0.0,   -0.1,   0.00,   0.00, 1011.2,    0.0, -999.0
15-03-2023, 00:23:58,    253,    0.0,    0.0,   0.00,   0.00, 1011.2,    0.0, -999.0
15-03-2023, 00:24:08,    253,    0.0,    0.0,   0.00,   0.00, 1011.2,    0.2, -999.0
15-03-2023, 00:24:18,    253,    0.0,    0.0,   0.00,   0.00, 1011.2,    0.0, -999.0
15-03-2023, 00:24:28,    253,    0.0,   -0.1,   0.00,   0.00, 1011.2,    0.1, -999.0
15-03-2023, 00:24:38,    253,    0.0,    0.0,   0.00,   0.00, 1011.2,    0.0, -999.0
15-03-2023, 00:24:48,    253,    0.0,   -0.1,   0.00,   0.00, 1011.2,    0.1, -999.0
15-03-2023, 00:24:58,    253,    0.0,   -0.1,   0.00,   0.00, 1011.2,    0.1, -999.0
15-03-2023, 00:25:08,    253,    0.0,    0.1,   0.00,   0.00, 1011.2,    0.1, -999.0
15-03-2023, 00:25:18,    253,    0.0,    0.0,   0.00,   0.00, 1011.3,    0.0, -999.0
15-03-2023, 00:25:28,    253,    0.0,    0.0,   0.00,   0.00, 1011.2,    0.1, -999.0
15-03-2023, 00:25:38,    253,    0.0,    0.0,   0.00,   0.00, 1011.2,    0.1, -999.0
15-03-2023, 00:25:48,    253,    0.0,    0.0,   0.00,   0.00, 1011.2,    0.1, -999.0
15-03-2023, 00:25:58,    253,    0.0,   -0.1,   0.00,   0.00, 1011.2,    0.1, -999.0
15-03-2023, 00:26:07,    252,    0.0,    0.0,   0.00,   0.00, 1011.2,    0.0, -999.0
15-03-2023, 00:26:18,    253,    0.0,   -0.1,   0.00,   0.00, 1011.2,    0.1, -999.0
15-03-2023, 00:26:28,    253,    0.0,   -0.1,   0.00,   0.00, 1011.2,    0.0, -999.0
15-03-2023, 00:26:38,    253,    0.0,    0.0,   0.00,   0.00, 1011.2,    0.0, -999.0
15-03-2023, 00:26:47,    253,    0.0,   -0.1,   0.00,   0.00, 1011.2,    0.0, -999.0
15-03-2023, 00:26:58,    253,    0.0,   -0.1,   0.00,   0.00, 1011.2,    0.1, -999.0
15-03-2023, 00:27:08,    253,    0.0,    0.0,   0.00,   0.00, 1011.2,    0.1, -999.0
15-03-2023, 00:27:17,    253,    0.0,   -0.1,   0.00,   0.00, 1011.3,    0.0, -999.0
15-03-2023, 00:27:27,    253,    0.0,   -0.1,   0.00,   0.00, 1011.3,    0.0, -999.0
15-03-2023, 00:27:38,    253,    0.0,    0.0,   0.00,   0.00, 1011.2,    0.0, -999.0
15-03-2023, 00:27:48,    249,    0.0,    0.0,   0.00,   0.00, 1011.3,    0.0, -999.0
15-03-2023, 00:27:57,    253,    0.0,   -0.2,   0.00,   0.00, 1011.3,    0.1, -999.0
15-03-2023, 00:28:07,    253,    0.0,   -0.1,   0.00,   0.00, 1011.3,    0.0, -999.0
15-03-2023, 00:28:18,    253,    0.0,   -0.1,   0.00,   0.00, 1011.3,    0.1, -999.0
15-03-2023, 00:28:27,    253,    0.0,   -0.1,   0.00,   0.00, 1011.3,    0.0, -999.0
15-03-2023, 00:28:37,    253,    0.0,   -0.1,   0.00,   0.00, 1011.3,    0.2, -999.0
15-03-2023, 00:28:47,    253,    0.0,    0.0,   0.00,   0.00, 1011.3,    0.1, -999.0
15-03-2023, 00:28:57,    253,    0.0,   -0.1,   0.00,   0.00, 1011.3,    0.1, -999.0
15-03-2023, 00:29:07,    254,    0.0,   -0.1,   0.00,   0.00, 1011.3,    0.0, -999.0
15-03-2023, 00:29:17,    253,    0.0,    0.0,   0.00,   0.00, 1011.3,    0.0, -999.0
15-03-2023, 00:29:28,    253,    0.0,   -0.1,   0.00,   0.00, 1011.3,    0.0, -999.0
15-03-2023, 00:29:37,    253,    0.0,    0.0,   0.00,   0.00, 1011.3,    0.0, -999.0
15-03-2023, 00:29:47,    253,    0.0,    0.0,   0.00,   0.00, 1011.3,    0.2, -999.0
15-03-2023, 00:29:57,    252,    0.0,    0.0,   0.00,   0.00, 1011.3,    0.1, -999.0
15-03-2023, 00:30:07,    253,    0.0,    0.0,   0.00,   0.00, 1011.3,    0.1, -999.0
15-03-2023, 00:30:17,    253,    0.0,    0.0,   0.00,   0.00, 1011.3,    0.0, -999.0
15-03-2023, 00:30:27,    253,    0.0,    0.0,   0.00,   0.00, 1011.4,    0.1, -999.0
15-03-2023, 00:30:37,    253,    0.0,    0.0,   0.00,   0.00, 1011.3,    0.1, -999.0
15-03-2023, 00:30:47,    253,    0.0,    0.0,   0.00,   0.00, 1011.3,    0.1, -999.0
15-03-2023, 00:30:57,    252,    0.0,    0.0,   0.00,   0.00, 1011.3,    0.0, -999.0
15-03-2023, 00:31:07,    252,    0.0,    0.0,   0.00,   0.00, 1011.4,    0.1, -999.0
15-03-2023, 00:31:17,    253,    0.0,    0.0,   0.00,   0.00, 1011.3,    0.0, -999.0
15-03-2023, 00:31:27,    252,    0.0,    0.0,   0.00,   0.00, 1011.4,    0.1, -999.0
15-03-2023, 00:31:37,    253,    0.0,    0.0,   0.00,   0.00, 1011.3,    0.0, -999.0
15-03-2023, 00:31:47,    247,    0.0,    0.0,   0.00,   0.00, 1011.3,    0.1, -999.0
15-03-2023, 00:31:57,    247,    0.0,   -0.1,   0.00,   0.00, 1011.3,    0.1, -999.0
15-03-2023, 00:32:07,    245,    0.0,   -0.2,   0.00,   0.00, 1011.3,    0.0, -999.0
15-03-2023, 00:32:17,    245,    0.0,   -0.1,   0.00,   0.00, 1011.3,    0.0, -999.0
15-03-2023, 00:32:27,    245,    0.0,   -0.2,   0.00,   0.00, 1011.3,    0.0, -999.0
15-03-2023, 00:32:37,    245,    0.0,    0.0,   0.00,   0.00, 1011.3,    0.0, -999.0
15-03-2023, 00:32:47,    245,    0.0,    0.0,   0.00,   0.00, 1011.3,    0.0, -999.0
15-03-2023, 00:32:57,    245,    0.0,    0.1,   0.00,   0.00, 1011.3,    0.0, -999.0
15-03-2023, 00:33:07,    245,    0.0,    0.0,   0.00,   0.00, 1011.3,    0.1, -999.0
15-03-2023, 00:33:17,    245,    0.0,    0.1,   0.00,   0.00, 1011.3,    0.1, -999.0
15-03-2023, 00:33:27,    245,    0.0,    0.0,   0.00,   0.00, 1011.3,    0.0, -999.0
15-03-2023, 00:33:37,    245,    0.0,    0.0,   0.00,   0.00, 1011.3,    0.0, -999.0
15-03-2023, 00:33:47,    245,    0.0,    0.0,   0.00,   0.00, 1011.3,    0.0, -999.0
15-03-2023, 00:33:57,    245,    0.0,   -0.1,   0.00,   0.00, 1011.3,    0.0, -999.0
15-03-2023, 00:34:07,    245,    0.0,    0.0,   0.00,   0.00, 1011.3,    0.0, -999.0
15-03-2023, 00:34:17,    245,    0.0,    0.0,   0.00,   0.00, 1011.3,    0.0, -999.0
15-03-2023, 00:34:27,    256,    0.0,    0.0,   0.00,   0.00, 1011.3,    0.0, -999.0
15-03-2023, 00:34:37,    257,    0.0,    0.0,   0.00,   0.00, 1011.3,    0.0, -999.0
15-03-2023, 00:34:47,    258,    0.0,   -0.1,   0.00,   0.00, 1011.3,    0.0, -999.0
15-03-2023, 00:34:57,    258,    0.0,    0.0,   0.00,   0.00, 1011.3,    0.0, -999.0
15-03-2023, 00:35:07,    258,    0.0,    0.0,   0.00,   0.00, 1011.3,    0.0, -999.0
15-03-2023, 00:35:17,    258,    0.0,   -0.1,   0.00,   0.00, 1011.3,    0.1, -999.0
15-03-2023, 00:35:27,    258,    0.0,   -0.1,   0.00,   0.00, 1011.3,    0.0, -999.0
15-03-2023, 00:35:37,    258,    0.0,   -0.1,   0.00,   0.00, 1011.3,    0.0, -999.0
15-03-2023, 00:35:47,    258,    0.0,   -0.1,   0.00,   0.00, 1011.3,    0.1, -999.0
15-03-2023, 00:35:57,    258,    0.0,    0.0,   0.00,   0.00, 1011.3,    0.1, -999.0
15-03-2023, 00:36:07,    258,    0.0,    0.0,   0.00,   0.00, 1011.3,    0.0, -999.0
15-03-2023, 00:36:17,    258,    0.0,    0.0,   0.00,   0.00, 1011.3,    0.0, -999.0
15-03-2023, 00:36:26,    258,    0.0,    0.0,   0.00,   0.00, 1011.3,    0.1, -999.0
15-03-2023, 00:36:37,    258,    0.0,   -0.1,   0.00,   0.00, 1011.3,    0.1, -999.0
15-03-2023, 00:36:47,    258,    0.0,    0.0,   0.00,   0.00, 1011.3,    0.0, -999.0
15-03-2023, 00:36:57,    258,    0.0,    0.0,   0.00,   0.00, 1011.3,    0.1, -999.0
15-03-2023, 00:37:07,    258,    0.0,   -0.1,   0.00,   0.00, 1011.3,    0.1, -999.0
15-03-2023, 00:37:17,    258,    0.0,    0.0,   0.00,   0.00, 1011.4,    0.0, -999.0
15-03-2023, 00:37:27,    258,    0.0,   -0.1,   0.00,   0.00, 1011.3,    0.1, -999.0
15-03-2023, 00:37:36,    258,    0.0,   -0.1,   0.00,   0.00, 1011.3,    0.2, -999.0
15-03-2023, 00:37:47,    258,    0.0,   -0.1,   0.00,   0.00, 1011.3,    0.1, -999.0
15-03-2023, 00:37:57,    258,    0.0,   -0.1,   0.00,   0.00, 1011.3,    0.1, -999.0
15-03-2023, 00:38:06,    258,    0.0,   -0.2,   0.00,   0.00, 1011.3,    0.0, -999.0
15-03-2023, 00:38:16,    258,    0.0,   -0.1,   0.00,   0.00, 1011.4,    0.0, -999.0
15-03-2023, 00:38:27,    258,    0.0,   -0.1,   0.00,   0.00, 1011.3,    0.0, -999.0
15-03-2023, 00:38:37,    258,    0.0,   -0.2,   0.00,   0.00, 1011.3,    0.0, -999.0
15-03-2023, 00:38:46,    258,    0.0,   -0.1,   0.00,   0.00, 1011.3,    0.1, -999.0
15-03-2023, 00:38:56,    258,    0.0,   -0.1,   0.00,   0.00, 1011.3,    0.2, -999.0
15-03-2023, 00:39:07,    258,    0.0,   -0.1,   0.00,   0.00, 1011.3,    0.1, -999.0
15-03-2023, 00:39:16,    258,    0.0,   -0.1,   0.00,   0.00, 1011.3,    0.1, -999.0
15-03-2023, 00:39:26,    258,    0.0,   -0.1,   0.00,   0.00, 1011.4,    0.0, -999.0
15-03-2023, 00:39:36,    258,    0.0,   -0.2,   0.00,   0.00, 1011.4,    0.1, -999.0
15-03-2023, 00:39:47,    258,    0.0,   -0.2,   0.00,   0.00, 1011.4,    0.1, -999.0
15-03-2023, 00:39:56,    258,    0.0,   -0.1,   0.00,   0.00, 1011.3,    0.0, -999.0
15-03-2023, 00:40:06,    258,    0.0,   -0.2,   0.00,   0.00, 1011.4,    0.1, -999.0
15-03-2023, 00:40:16,    258,    0.0,   -0.1,   0.00,   0.00, 1011.4,    0.0, -999.0
15-03-2023, 00:40:26,    258,    0.0,   -0.1,   0.00,   0.00, 1011.4,    0.1, -999.0
15-03-2023, 00:40:36,    258,    0.0,   -0.1,   0.00,   0.00, 1011.4,    0.0, -999.0
15-03-2023, 00:40:46,    258,    0.0,   -0.1,   0.00,   0.00, 1011.4,    0.1, -999.0
15-03-2023, 00:40:56,    258,    0.0,   -0.2,   0.00,   0.00, 1011.4,    0.1, -999.0
15-03-2023, 00:41:06,    258,    0.0,   -0.1,   0.00,   0.00, 1011.4,    0.1, -999.0
15-03-2023, 00:41:16,    258,    0.0,   -0.1,   0.00,   0.00, 1011.4,    0.0, -999.0
15-03-2023, 00:41:26,    258,    0.0,   -0.1,   0.00,   0.00, 1011.4,    0.1, -999.0
15-03-2023, 00:41:36,    258,    0.0,   -0.1,   0.00,   0.00, 1011.4,    0.2, -999.0
15-03-2023, 00:41:46,    259,    0.0,   -0.1,   0.00,   0.00, 1011.4,    0.0, -999.0
15-03-2023, 00:41:56,    259,    0.0,   -0.1,   0.00,   0.00, 1011.4,    0.1, -999.0
15-03-2023, 00:42:06,    258,    0.0,   -0.2,   0.00,   0.00, 1011.4,    0.3, -999.0
15-03-2023, 00:42:16,    258,    0.0,   -0.3,   0.00,   0.00, 1011.4,    0.1, -999.0
15-03-2023, 00:42:26,    258,    0.0,   -0.2,   0.00,   0.00, 1011.4,    0.0, -999.0
15-03-2023, 00:42:36,    258,    0.0,   -0.1,   0.00,   0.00, 1011.4,    0.1, -999.0
15-03-2023, 00:42:46,    258,    0.0,   -0.2,   0.00,   0.00, 1011.4,    0.0, -999.0
15-03-2023, 00:42:56,    258,    0.0,   -0.2,   0.00,   0.00, 1011.4,    0.0, -999.0
15-03-2023, 00:43:06,    258,    0.0,   -0.2,   0.00,   0.00, 1011.4,    0.1, -999.0
15-03-2023, 00:43:16,    258,    0.0,   -0.1,   0.00,   0.00, 1011.4,    0.2, -999.0
15-03-2023, 00:43:26,    258,    0.0,   -0.1,   0.00,   0.00, 1011.4,    0.1, -999.0
15-03-2023, 00:43:36,    258,    0.0,   -0.2,   0.00,   0.00, 1011.4,    0.1, -999.0
15-03-2023, 00:43:46,    258,    0.0,   -0.1,   0.00,   0.00, 1011.4,    0.2, -999.0
15-03-2023, 00:43:56,    258,    0.0,   -0.1,   0.00,   0.00, 1011.4,    0.0, -999.0
15-03-2023, 00:44:06,    254,    0.0,   -0.1,   0.00,   0.00, 1011.4,    0.0, -999.0
15-03-2023, 00:44:16,    254,    0.0,   -0.1,   0.00,   0.00, 1011.4,    0.1, -999.0
15-03-2023, 00:44:26,    254,    0.0,   -0.1,   0.00,   0.00, 1011.4,    0.2, -999.0
15-03-2023, 00:44:36,    252,    0.0,   -0.1,   0.00,   0.00, 1011.4,    0.0, -999.0
15-03-2023, 00:44:46,    254,    0.0,   -0.1,   0.00,   0.00, 1011.4,    0.0, -999.0
15-03-2023, 00:44:56,    254,    0.0,   -0.1,   0.00,   0.00, 1011.4,    0.1, -999.0
15-03-2023, 00:45:06,    254,    0.0,   -0.1,   0.00,   0.00, 1011.4,    0.1, -999.0
15-03-2023, 00:45:16,    254,    0.0,   -0.1,   0.00,   0.00, 1011.4,    0.1, -999.0
15-03-2023, 00:45:26,    254,    0.0,   -0.2,   0.00,   0.00, 1011.4,    0.0, -999.0
15-03-2023, 00:45:36,    254,    0.0,   -0.1,   0.00,   0.00, 1011.4,    0.1, -999.0
15-03-2023, 00:45:46,    254,    0.0,   -0.1,   0.00,   0.00, 1011.4,    0.0, -999.0
15-03-2023, 00:45:56,    254,    0.0,   -0.1,   0.00,   0.00, 1011.4,    0.1, -999.0
15-03-2023, 00:46:06,    254,    0.0,   -0.1,   0.00,   0.00, 1011.4,    0.0, -999.0
15-03-2023, 00:46:16,    254,    0.0,   -0.1,   0.00,   0.00, 1011.4,    0.1, -999.0
15-03-2023, 00:46:26,    254,    0.0,   -0.1,   0.00,   0.00, 1011.4,    0.0, -999.0
15-03-2023, 00:46:36,    254,    0.0,   -0.1,   0.00,   0.00, 1011.4,    0.0, -999.0
15-03-2023, 00:46:46,    254,    0.0,   -0.2,   0.00,   0.00, 1011.4,    0.1, -999.0